| time (UTC) | temp C | wind direction | speed KPH | gust KPH | rain 1hr cm | rain 24hr cm | rain mn cm | humidity % | barometer mb |
| 20260905032412 | 28 | 90 | 0.0 | 4.8 | 0.00 | 0.00 | 0.00 | 45 | 1011.9 |
| 20260905031907 | 28 | 114 | 0.0 | 4.8 | 0.00 | 0.00 | 0.00 | 44 | 1011.5 |
| 20260905031403 | 29 | 90 | 0.0 | 4.8 | 0.00 | 0.00 | 0.00 | 44 | 1011.5 |
| 20260905030858 | 28 | 173 | 6.4 | 6.4 | 0.00 | 0.00 | 0.00 | 45 | 1011.4 |
| 20260905030354 | 28 | 151 | 3.2 | 4.8 | 0.00 | 0.00 | 0.00 | 45 | 1011.5 |
| 20260905025852 | 29 | 90 | 0.0 | 4.8 | 0.00 | 0.00 | 0.00 | 44 | 1011.2 |
| 20260905025348 | 29 | 147 | 3.2 | 6.4 | 0.00 | 0.00 | 0.00 | 44 | 1011.2 |
| 20260905024845 | 30 | 151 | 3.2 | 8.0 | 0.00 | 0.00 | 0.00 | 41 | 1011.1 |
| 20260905024344 | 30 | 81 | 0.0 | 1.6 | 0.00 | 0.00 | 0.00 | 41 | 1010.9 |
| 20260905023840 | 31 | 279 | 0.0 | 3.2 | 0.00 | 0.00 | 0.00 | 40 | 1010.6 |
| 20260905023335 | 30 | 23 | 0.0 | 1.6 | 0.00 | 0.00 | 0.00 | 39 | 1010.4 |
| 20260905022834 | 30 | 277 | 0.0 | 3.2 | 0.00 | 0.00 | 0.00 | 40 | 1010.7 |
| 20260905022330 | 30 | 90 | 0.0 | 0.0 | 0.00 | 0.00 | 0.00 | 40 | 1010.6 |
| 20260905021824 | 30 | 90 | 0.0 | 0.0 | 0.00 | 0.00 | 0.00 | 41 | 1010.6 |
| 20260905021320 | 30 | 0 | 0.0 | 0.0 | 0.00 | 0.00 | 0.00 | 41 | 1010.6 |
| 20260905020814 | 30 | 0 | 0.0 | 0.0 | 0.00 | 0.00 | 0.00 | 41 | 1010.3 |
| 20260905020309 | 30 | 276 | 0.0 | 3.2 | 0.00 | 0.00 | 0.00 | 41 | 1010.1 |
| 20260905015808 | 30 | 90 | 0.0 | 0.0 | 0.00 | 0.00 | 0.00 | 42 | 1010.1 |
| 20260905015306 | 31 | 246 | 0.0 | 3.2 | 0.00 | 0.00 | 0.00 | 42 | 1010.1 |
| 20260905014801 | 31 | 286 | 0.0 | 3.2 | 0.00 | 0.00 | 0.00 | 42 | 1009.9 |
| 20260905014258 | 31 | 278 | 0.0 | 4.8 | 0.00 | 0.00 | 0.00 | 42 | 1010.0 |
| 20260905013752 | 31 | 315 | 3.2 | 4.8 | 0.00 | 0.00 | 0.00 | 41 | 1010.1 |
| 20260905013249 | 31 | 304 | 0.0 | 8.0 | 0.00 | 0.00 | 0.00 | 39 | 1010.2 |
| 20260905012744 | 31 | 340 | 0.0 | 1.6 | 0.00 | 0.00 | 0.00 | 38 | 1010.1 |
| 20260905012239 | 32 | 66 | 0.0 | 4.8 | 0.00 | 0.00 | 0.00 | 36 | 1010.2 |
| 20260905011736 | 32 | 232 | 3.2 | 19.3 | 0.00 | 0.00 | 0.00 | 35 | 1010.0 |
| 20260905011232 | 32 | 270 | 0.0 | 1.6 | 0.00 | 0.00 | 0.00 | 36 | 1010.1 |
| 20260905010731 | 32 | 294 | 0.0 | 0.0 | 0.00 | 0.00 | 0.00 | 35 | 1009.7 |
| 20260905010226 | 32 | 0 | 0.0 | 1.6 | 0.00 | 0.00 | 0.00 | 36 | 1009.9 |
| 20260905005724 | 32 | 348 | 0.0 | 4.8 | 0.00 | 0.00 | 0.00 | 35 | 1010.0 |
| 20260905005219 | 33 | 335 | 0.0 | 9.7 | 0.00 | 0.00 | 0.00 | 35 | 1009.8 |
| 20260905004713 | 33 | 344 | 0.0 | 0.0 | 0.00 | 0.00 | 0.00 | 33 | 1009.8 |
| 20260905004208 | 33 | 90 | 0.0 | 1.6 | 0.00 | 0.00 | 0.00 | 32 | 1009.7 |
| 20260905003703 | 34 | 71 | 0.0 | 6.4 | 0.00 | 0.00 | 0.00 | 31 | 1009.7 |
| 20260905003159 | 35 | 209 | 0.0 | 4.8 | 0.00 | 0.00 | 0.00 | 30 | 1009.8 |
| 20260905002654 | 35 | 194 | 0.0 | 4.8 | 0.00 | 0.00 | 0.00 | 30 | 1009.6 |
| 20260905002154 | 35 | 237 | 3.2 | 6.4 | 0.00 | 0.00 | 0.00 | 30 | 1009.4 |
| 20260905001649 | 35 | 174 | 0.0 | 3.2 | 0.00 | 0.00 | 0.00 | 31 | 1009.4 |
| 20260905001148 | 35 | 255 | 0.0 | 1.6 | 0.00 | 0.00 | 0.00 | 31 | 1009.2 |
| 20260905000644 | 35 | 218 | 3.2 | 4.8 | 0.00 | 0.00 | 0.00 | 31 | 1009.4 |
| 20260905000140 | 35 | 230 | 4.8 | 4.8 | 0.00 | 0.00 | 0.00 | 29 | 1009.5 |
| 20260904235639 | 35 | 184 | 3.2 | 8.0 | 0.00 | 0.00 | 0.00 | 30 | 1009.5 |
| 20260904235139 | 35 | 186 | 1.6 | 4.8 | 0.00 | 0.00 | 0.00 | 30 | 1009.2 |
| 20260904234634 | 35 | 245 | 8.0 | 8.0 | 0.00 | 0.00 | 0.00 | 30 | 1009.2 |
| 20260904234130 | 35 | 159 | 0.0 | 4.8 | 0.00 | 0.00 | 0.00 | 29 | 1009.1 |
| 20260904233626 | 35 | 182 | 4.8 | 6.4 | 0.00 | 0.00 | 0.00 | 30 | 1009.4 |
| 20260904233121 | 36 | 239 | 4.8 | 9.7 | 0.00 | 0.00 | 0.00 | 28 | 1009.4 |
| 20260904232618 | 36 | 180 | 4.8 | 8.0 | 0.00 | 0.00 | 0.00 | 26 | 1008.8 |
| 20260904232114 | 36 | 217 | 3.2 | 9.7 | 0.00 | 0.00 | 0.00 | 26 | 1009.0 |
| 20260904231609 | 36 | 180 | 4.8 | 9.7 | 0.00 | 0.00 | 0.00 | 26 | 1009.0 |
| 20260904231109 | 37 | 151 | 6.4 | 12.9 | 0.00 | 0.00 | 0.00 | 26 | 1009.0 |
| 20260904230608 | 37 | 155 | 9.7 | 17.7 | 0.00 | 0.00 | 0.00 | 26 | 1008.9 |
| 20260904230104 | 37 | 171 | 6.4 | 14.5 | 0.00 | 0.00 | 0.00 | 25 | 1008.9 |
| 20260904225601 | 38 | 189 | 6.4 | 6.4 | 0.00 | 0.00 | 0.00 | 25 | 1009.0 |
| 20260904225056 | 37 | 182 | 8.0 | 11.3 | 0.00 | 0.00 | 0.00 | 25 | 1008.9 |
| 20260904224551 | 37 | 191 | 6.4 | 12.9 | 0.00 | 0.00 | 0.00 | 25 | 1009.0 |
| 20260904224046 | 37 | 180 | 4.8 | 12.9 | 0.00 | 0.00 | 0.00 | 25 | 1009.2 |
| 20260904223545 | 37 | 166 | 4.8 | 11.3 | 0.00 | 0.00 | 0.00 | 26 | 1008.9 |
| 20260904223041 | 37 | 154 | 4.8 | 8.0 | 0.00 | 0.00 | 0.00 | 26 | 1009.2 |
| 20260904222536 | 37 | 248 | 0.0 | 11.3 | 0.00 | 0.00 | 0.00 | 27 | 1009.2 |
| 20260904222032 | 37 | 236 | 8.0 | 11.3 | 0.00 | 0.00 | 0.00 | 26 | 1009.2 |
| 20260904221526 | 37 | 163 | 16.1 | 16.1 | 0.00 | 0.00 | 0.00 | 28 | 1009.4 |
| 20260904221021 | 37 | 160 | 4.8 | 8.0 | 0.00 | 0.00 | 0.00 | 28 | 1009.1 |
| 20260904220520 | 36 | 184 | 9.7 | 12.9 | 0.00 | 0.00 | 0.00 | 29 | 1009.4 |
| 20260904220017 | 36 | 198 | 4.8 | 8.0 | 0.00 | 0.00 | 0.00 | 29 | 1009.5 |
| 20260904215516 | 36 | 216 | 6.4 | 9.7 | 0.00 | 0.00 | 0.00 | 30 | 1009.2 |
| 20260904215012 | 36 | 168 | 8.0 | 8.0 | 0.00 | 0.00 | 0.00 | 28 | 1009.6 |
| 20260904214507 | 36 | 186 | 1.6 | 6.4 | 0.00 | 0.00 | 0.00 | 28 | 1009.5 |
| 20260904214002 | 36 | 182 | 9.7 | 17.7 | 0.00 | 0.00 | 0.00 | 28 | 1009.5 |
| 20260904213501 | 37 | 176 | 8.0 | 20.9 | 0.00 | 0.00 | 0.00 | 28 | 1009.5 |
| 20260904212957 | 37 | 183 | 8.0 | 20.9 | 0.00 | 0.00 | 0.00 | 27 | 1009.5 |
| 20260904212456 | 37 | 159 | 14.5 | 20.9 | 0.00 | 0.00 | 0.00 | 28 | 1009.5 |
| 20260904211951 | 36 | 180 | 6.4 | 16.1 | 0.00 | 0.00 | 0.00 | 30 | 1009.6 |
| 20260904211446 | 36 | 180 | 3.2 | 4.8 | 0.00 | 0.00 | 0.00 | 28 | 1009.6 |
| 20260904210942 | 36 | 108 | 4.8 | 8.0 | 0.00 | 0.00 | 0.00 | 29 | 1009.7 |
| 20260904210441 | 36 | 213 | 8.0 | 11.3 | 0.00 | 0.00 | 0.00 | 29 | 1009.9 |
| 20260904205937 | 36 | 159 | 3.2 | 11.3 | 0.00 | 0.00 | 0.00 | 28 | 1009.9 |
| 20260904205432 | 36 | 214 | 6.4 | 9.7 | 0.00 | 0.00 | 0.00 | 29 | 1010.0 |
| 20260904204929 | 37 | 213 | 4.8 | 9.7 | 0.00 | 0.00 | 0.00 | 26 | 1009.9 |
| 20260904204425 | 37 | 215 | 12.9 | 16.1 | 0.00 | 0.00 | 0.00 | 26 | 1010.0 |
| 20260904203921 | 37 | 167 | 8.0 | 14.5 | 0.00 | 0.00 | 0.00 | 27 | 1010.0 |
| 20260904203417 | 37 | 180 | 4.8 | 16.1 | 0.00 | 0.00 | 0.00 | 27 | 1009.9 |
| 20260904202912 | 38 | 180 | 8.0 | 9.7 | 0.00 | 0.00 | 0.00 | 26 | 1010.1 |
| 20260904202409 | 37 | 180 | 9.7 | 11.3 | 0.00 | 0.00 | 0.00 | 26 | 1010.1 |
| 20260904201904 | 36 | 166 | 12.9 | 12.9 | 0.00 | 0.00 | 0.00 | 27 | 1010.2 |
| 20260904201359 | 37 | 163 | 6.4 | 16.1 | 0.00 | 0.00 | 0.00 | 26 | 1010.6 |
| 20260904200854 | 38 | 117 | 0.0 | 11.3 | 0.00 | 0.00 | 0.00 | 25 | 1010.3 |
| 20260904200353 | 38 | 151 | 1.6 | 8.0 | 0.00 | 0.00 | 0.00 | 26 | 1010.4 |
| 20260904195848 | 36 | 165 | 8.0 | 12.9 | 0.00 | 0.00 | 0.00 | 27 | 1010.7 |
| 20260904195346 | 37 | 160 | 4.8 | 9.7 | 0.00 | 0.00 | 0.00 | 27 | 1010.7 |
| 20260904194841 | 37 | 148 | 3.2 | 9.7 | 0.00 | 0.00 | 0.00 | 26 | 1010.9 |
| 20260904194340 | 37 | 201 | 3.2 | 4.8 | 0.00 | 0.00 | 0.00 | 26 | 1010.8 |
| 20260904193836 | 37 | 156 | 12.9 | 20.9 | 0.00 | 0.00 | 0.00 | 27 | 1010.7 |
| 20260904193331 | 37 | 223 | 6.4 | 9.7 | 0.00 | 0.00 | 0.00 | 27 | 1011.1 |
| 20260904192826 | 37 | 169 | 6.4 | 12.9 | 0.00 | 0.00 | 0.00 | 27 | 1011.2 |
| 20260904192321 | 37 | 174 | 6.4 | 6.4 | 0.00 | 0.00 | 0.00 | 27 | 1011.2 |
| 20260904191818 | 37 | 70 | 6.4 | 6.4 | 0.00 | 0.00 | 0.00 | 27 | 1011.2 |
| 20260904191314 | 37 | 111 | 4.8 | 6.4 | 0.00 | 0.00 | 0.00 | 28 | 1011.3 |
| 20260904190811 | 37 | 223 | 8.0 | 17.7 | 0.00 | 0.00 | 0.00 | 28 | 1011.2 |
| 20260904190306 | 37 | 59 | 0.0 | 6.4 | 0.00 | 0.00 | 0.00 | 28 | 1011.3 |
| 20260904185803 | 37 | 68 | 0.0 | 8.0 | 0.00 | 0.00 | 0.00 | 28 | 1011.8 |
| 20260904185257 | 36 | 177 | 8.0 | 11.3 | 0.00 | 0.00 | 0.00 | 29 | 1011.6 |
| 20260904184756 | 36 | 182 | 6.4 | 14.5 | 0.00 | 0.00 | 0.00 | 29 | 1011.9 |
| 20260904184252 | 36 | 95 | 3.2 | 9.7 | 0.00 | 0.00 | 0.00 | 30 | 1011.9 |
| 20260904183747 | 36 | 192 | 3.2 | 9.7 | 0.00 | 0.00 | 0.00 | 30 | 1011.6 |
| 20260904183242 | 36 | 157 | 0.0 | 9.7 | 0.00 | 0.00 | 0.00 | 30 | 1012.0 |
| 20260904182738 | 36 | 206 | 0.0 | 9.7 | 0.00 | 0.00 | 0.00 | 30 | 1011.6 |
| 20260904182233 | 36 | 42 | 4.8 | 11.3 | 0.00 | 0.00 | 0.00 | 30 | 1012.2 |
| 20260904181728 | 35 | 188 | 1.6 | 8.0 | 0.00 | 0.00 | 0.00 | 31 | 1012.2 |
| 20260904181228 | 35 | 41 | 4.8 | 8.0 | 0.00 | 0.00 | 0.00 | 31 | 1012.2 |
| 20260904180723 | 35 | 244 | 4.8 | 9.7 | 0.00 | 0.00 | 0.00 | 31 | 1012.3 |
| 20260904180219 | 35 | 171 | 6.4 | 11.3 | 0.00 | 0.00 | 0.00 | 31 | 1012.4 |
| 20260904175717 | 36 | 194 | 8.0 | 12.9 | 0.00 | 0.00 | 0.00 | 30 | 1012.4 |
| 20260904175216 | 36 | 70 | 3.2 | 6.4 | 0.00 | 0.00 | 0.00 | 30 | 1012.3 |
| 20260904174711 | 36 | 180 | 3.2 | 6.4 | 0.00 | 0.00 | 0.00 | 30 | 1012.5 |
| 20260904174207 | 35 | 180 | 0.0 | 11.3 | 0.00 | 0.00 | 0.00 | 32 | 1012.9 |
| 20260904173702 | 35 | 152 | 3.2 | 12.9 | 0.00 | 0.00 | 0.00 | 32 | 1012.7 |
| 20260904173157 | 34 | 201 | 3.2 | 12.9 | 0.00 | 0.00 | 0.00 | 32 | 1013.1 |
| 20260904172654 | 35 | 161 | 8.0 | 8.0 | 0.00 | 0.00 | 0.00 | 30 | 1013.1 |
| 20260904172153 | 35 | 162 | 0.0 | 6.4 | 0.00 | 0.00 | 0.00 | 31 | 1013.0 |
| 20260904171649 | 35 | 160 | 0.0 | 8.0 | 0.00 | 0.00 | 0.00 | 32 | 1013.1 |
| 20260904171143 | 35 | 196 | 4.8 | 8.0 | 0.00 | 0.00 | 0.00 | 33 | 1013.0 |
| 20260904170640 | 34 | 277 | 4.8 | 9.7 | 0.00 | 0.00 | 0.00 | 35 | 1013.0 |
| 20260904170135 | 34 | 197 | 6.4 | 11.3 | 0.00 | 0.00 | 0.00 | 36 | 1013.0 |
| 20260904165633 | 35 | 196 | 3.2 | 6.4 | 0.00 | 0.00 | 0.00 | 34 | 1013.1 |
| 20260904165127 | 35 | 103 | 1.6 | 4.8 | 0.00 | 0.00 | 0.00 | 35 | 1013.1 |
| 20260904164622 | 34 | 252 | 0.0 | 3.2 | 0.00 | 0.00 | 0.00 | 35 | 1013.1 |
| 20260904164118 | 33 | 180 | 1.6 | 6.4 | 0.00 | 0.00 | 0.00 | 36 | 1013.1 |
| 20260904163612 | 33 | 209 | 1.6 | 8.0 | 0.00 | 0.00 | 0.00 | 37 | 1013.1 |
| 20260904163108 | 33 | 15 | 3.2 | 4.8 | 0.00 | 0.00 | 0.00 | 37 | 1013.0 |
| 20260904162603 | 34 | 249 | 4.8 | 6.4 | 0.00 | 0.00 | 0.00 | 36 | 1013.2 |
| 20260904162057 | 33 | 90 | 3.2 | 6.4 | 0.00 | 0.00 | 0.00 | 37 | 1013.2 |
| 20260904161552 | 33 | 159 | 3.2 | 8.0 | 0.00 | 0.00 | 0.00 | 38 | 1013.1 |
| 20260904161048 | 33 | 270 | 0.0 | 3.2 | 0.00 | 0.00 | 0.00 | 38 | 1013.0 |
| 20260904160543 | 33 | 168 | 0.0 | 9.7 | 0.00 | 0.00 | 0.00 | 39 | 1013.4 |
| 20260904160039 | 33 | 248 | 3.2 | 4.8 | 0.00 | 0.00 | 0.00 | 39 | 1013.0 |
| 20260904155537 | 33 | 173 | 0.0 | 4.8 | 0.00 | 0.00 | 0.00 | 40 | 1013.1 |
| 20260904155032 | 32 | 90 | 3.2 | 6.4 | 0.00 | 0.00 | 0.00 | 41 | 1013.1 |
| 20260904154526 | 31 | 203 | 4.8 | 8.0 | 0.00 | 0.00 | 0.00 | 43 | 1013.2 |
| 20260904154021 | 31 | 217 | 6.4 | 9.7 | 0.00 | 0.00 | 0.00 | 43 | 1013.1 |
| 20260904153521 | 31 | 250 | 0.0 | 9.7 | 0.00 | 0.00 | 0.00 | 44 | 1013.3 |
| 20260904153017 | 31 | 230 | 4.8 | 9.7 | 0.00 | 0.00 | 0.00 | 43 | 1013.1 |
| 20260904152513 | 31 | 229 | 0.0 | 9.7 | 0.00 | 0.00 | 0.00 | 44 | 1013.4 |
| 20260904152008 | 31 | 237 | 0.0 | 3.2 | 0.00 | 0.00 | 0.00 | 43 | 1013.3 |
| 20260904151502 | 31 | 336 | 3.2 | 6.4 | 0.00 | 0.00 | 0.00 | 44 | 1013.3 |
| 20260904150956 | 30 | 180 | 1.6 | 8.0 | 0.00 | 0.00 | 0.00 | 45 | 1013.3 |
| 20260904150452 | 30 | 172 | 0.0 | 8.0 | 0.00 | 0.00 | 0.00 | 46 | 1013.4 |
| 20260904145950 | 30 | 304 | 8.0 | 8.0 | 0.00 | 0.00 | 0.00 | 46 | 1013.5 |
| 20260904145446 | 30 | 300 | 0.0 | 4.8 | 0.00 | 0.00 | 0.00 | 46 | 1013.5 |
| 20260904144941 | 30 | 26 | 0.0 | 3.2 | 0.00 | 0.00 | 0.00 | 46 | 1013.4 |
| 20260904144437 | 29 | 276 | 0.0 | 4.8 | 0.00 | 0.00 | 0.00 | 48 | 1013.7 |
| 20260904143932 | 28 | 165 | 0.0 | 11.3 | 0.00 | 0.00 | 0.00 | 50 | 1013.4 |
| 20260904143429 | 28 | 75 | 0.0 | 8.0 | 0.00 | 0.00 | 0.00 | 50 | 1013.5 |
| 20260904142925 | 28 | 102 | 3.2 | 4.8 | 0.00 | 0.00 | 0.00 | 49 | 1013.4 |
| 20260904142421 | 28 | 270 | 1.6 | 16.1 | 0.00 | 0.00 | 0.00 | 51 | 1013.5 |
| 20260904141915 | 28 | 289 | 0.0 | 16.1 | 0.00 | 0.00 | 0.00 | 52 | 1013.4 |
| 20260904141410 | 28 | 254 | 0.0 | 11.3 | 0.00 | 0.00 | 0.00 | 52 | 1013.4 |
| 20260904140907 | 27 | 126 | 0.0 | 8.0 | 0.00 | 0.00 | 0.00 | 52 | 1013.4 |
| 20260904140401 | 27 | 325 | 4.8 | 14.5 | 0.00 | 0.00 | 0.00 | 53 | 1013.2 |
| 20260904135900 | 27 | 285 | 1.6 | 8.0 | 0.00 | 0.00 | 0.00 | 53 | 1013.2 |
| 20260904135355 | 27 | 305 | 3.2 | 8.0 | 0.00 | 0.00 | 0.00 | 54 | 1013.0 |
| 20260904134852 | 27 | 273 | 6.4 | 6.4 | 0.00 | 0.00 | 0.00 | 55 | 1013.3 |
| 20260904134351 | 26 | 288 | 0.0 | 8.0 | 0.00 | 0.00 | 0.00 | 55 | 1013.2 |
| 20260904133851 | 26 | 243 | 3.2 | 16.1 | 0.00 | 0.00 | 0.00 | 55 | 1013.3 |
| 20260904133347 | 27 | 90 | 0.0 | 4.8 | 0.00 | 0.00 | 0.00 | 55 | 1013.2 |
| 20260904132846 | 26 | 208 | 3.2 | 9.7 | 0.00 | 0.00 | 0.00 | 55 | 1013.3 |
| 20260904132341 | 26 | 286 | 8.0 | 8.0 | 0.00 | 0.00 | 0.00 | 55 | 1013.2 |
| 20260904131836 | 26 | 343 | 3.2 | 6.4 | 0.00 | 0.00 | 0.00 | 55 | 1013.0 |
| 20260904131331 | 26 | 221 | 3.2 | 8.0 | 0.00 | 0.00 | 0.00 | 56 | 1012.9 |
| 20260904130826 | 25 | 349 | 3.2 | 4.8 | 0.00 | 0.00 | 0.00 | 56 | 1013.0 |
| 20260904130325 | 25 | 198 | 1.6 | 6.4 | 0.00 | 0.00 | 0.00 | 57 | 1012.9 |
| 20260904125821 | 25 | 98 | 1.6 | 3.2 | 0.00 | 0.00 | 0.00 | 57 | 1012.7 |
| 20260904125317 | 25 | 248 | 3.2 | 4.8 | 0.00 | 0.00 | 0.00 | 58 | 1012.4 |
| 20260904124816 | 24 | 290 | 0.0 | 8.0 | 0.00 | 0.00 | 0.00 | 59 | 1012.6 |
| 20260904124313 | 23 | 353 | 0.0 | 0.0 | 0.00 | 0.00 | 0.00 | 58 | 1012.7 |
| 20260904123807 | 23 | 334 | 0.0 | 3.2 | 0.00 | 0.00 | 0.00 | 58 | 1012.5 |
| 20260904123303 | 23 | 131 | 3.2 | 3.2 | 0.00 | 0.00 | 0.00 | 57 | 1012.1 |
| 20260904122757 | 24 | 346 | 0.0 | 8.0 | 0.00 | 0.00 | 0.00 | 56 | 1012.2 |
| 20260904122256 | 24 | 0 | 0.0 | 3.2 | 0.00 | 0.00 | 0.00 | 56 | 1012.1 |
| 20260904121752 | 24 | 180 | 1.6 | 4.8 | 0.00 | 0.00 | 0.00 | 56 | 1012.1 |
| 20260904121248 | 23 | 36 | 3.2 | 4.8 | 0.00 | 0.00 | 0.00 | 57 | 1012.0 |
| 20260904120744 | 23 | 225 | 4.8 | 4.8 | 0.00 | 0.00 | 0.00 | 57 | 1012.2 |
| 20260904120240 | 23 | 291 | 0.0 | 3.2 | 0.00 | 0.00 | 0.00 | 57 | 1012.2 |
| 20260904115735 | 23 | 21 | 0.0 | 3.2 | 0.00 | 0.00 | 0.00 | 56 | 1011.9 |
| 20260904115230 | 23 | 240 | 0.0 | 4.8 | 0.00 | 0.00 | 0.00 | 56 | 1011.6 |
| 20260904114725 | 23 | 255 | 6.4 | 6.4 | 0.00 | 0.00 | 0.00 | 56 | 1012.0 |
| 20260904114225 | 23 | 66 | 0.0 | 1.6 | 0.00 | 0.00 | 0.00 | 56 | 1012.1 |
| 20260904113720 | 23 | 208 | 0.0 | 4.8 | 0.00 | 0.00 | 0.00 | 56 | 1012.0 |
| 20260904113218 | 23 | 60 | 1.6 | 3.2 | 0.00 | 0.00 | 0.00 | 56 | 1011.6 |
| 20260904112714 | 23 | 120 | 1.6 | 3.2 | 0.00 | 0.00 | 0.00 | 56 | 1011.8 |
| 20260904112209 | 23 | 234 | 0.0 | 4.8 | 0.00 | 0.00 | 0.00 | 57 | 1011.9 |
| 20260904111705 | 23 | 75 | 1.6 | 1.6 | 0.00 | 0.00 | 0.00 | 56 | 1012.0 |
| 20260904111200 | 23 | 310 | 4.8 | 6.4 | 0.00 | 0.00 | 0.00 | 56 | 1012.0 |
| 20260904110656 | 24 | 312 | 3.2 | 3.2 | 0.00 | 0.00 | 0.00 | 55 | 1011.8 |
| 20260904110155 | 24 | 286 | 0.0 | 4.8 | 0.00 | 0.00 | 0.00 | 55 | 1011.8 |
| 20260904105650 | 25 | 327 | 0.0 | 8.0 | 0.00 | 0.00 | 0.00 | 54 | 1011.5 |
| 20260904105145 | 25 | 353 | 0.0 | 11.3 | 0.00 | 0.00 | 0.00 | 53 | 1011.6 |
| 20260904104640 | 25 | 324 | 4.8 | 11.3 | 0.00 | 0.00 | 0.00 | 52 | 1011.8 |
| 20260904104130 | 25 | 300 | 0.0 | 12.9 | 0.00 | 0.00 | 0.00 | 53 | 1011.8 |
| 20260904103626 | 24 | 320 | 0.0 | 6.4 | 0.00 | 0.00 | 0.00 | 56 | 1011.8 |
| 20260904103122 | 23 | 168 | 0.0 | 1.6 | 0.00 | 0.00 | 0.00 | 58 | 1011.9 |
| 20260904102618 | 23 | 82 | 0.0 | 1.6 | 0.00 | 0.00 | 0.00 | 56 | 1011.8 |
| 20260904102113 | 24 | 145 | 1.6 | 3.2 | 0.00 | 0.00 | 0.00 | 56 | 1011.9 |
| 20260904101609 | 24 | 278 | 3.2 | 6.4 | 0.00 | 0.00 | 0.00 | 55 | 1011.6 |
| 20260904101105 | 23 | 299 | 4.8 | 8.0 | 0.00 | 0.00 | 0.00 | 56 | 1011.8 |
| 20260904100600 | 23 | 294 | 1.6 | 4.8 | 0.00 | 0.00 | 0.00 | 57 | 1011.9 |
| 20260904100055 | 22 | 7 | 0.0 | 3.2 | 0.00 | 0.00 | 0.00 | 60 | 1011.6 |
| 20260904095549 | 22 | 15 | 0.0 | 3.2 | 0.00 | 0.00 | 0.00 | 59 | 1011.9 |
| 20260904095044 | 23 | 0 | 0.0 | 0.0 | 0.00 | 0.00 | 0.00 | 58 | 1011.6 |
| 20260904094539 | 23 | 20 | 0.0 | 3.2 | 0.00 | 0.00 | 0.00 | 57 | 1011.8 |
| 20260904094034 | 23 | 243 | 0.0 | 4.8 | 0.00 | 0.00 | 0.00 | 57 | 1011.5 |
| 20260904093531 | 23 | 0 | 0.0 | 0.0 | 0.00 | 0.00 | 0.00 | 58 | 1011.8 |
| 20260904093031 | 23 | 172 | 0.0 | 1.6 | 0.00 | 0.00 | 0.00 | 57 | 1011.9 |
| 20260904092527 | 23 | 294 | 0.0 | 3.2 | 0.00 | 0.00 | 0.00 | 57 | 1012.0 |
| 20260904092023 | 24 | 303 | 0.0 | 4.8 | 0.00 | 0.00 | 0.00 | 56 | 1012.0 |
| 20260904091519 | 24 | 312 | 3.2 | 3.2 | 0.00 | 0.00 | 0.00 | 55 | 1012.1 |
| 20260904091018 | 24 | 326 | 0.0 | 3.2 | 0.00 | 0.00 | 0.00 | 55 | 1011.8 |
| 20260904090514 | 24 | 352 | 0.0 | 4.8 | 0.00 | 0.00 | 0.00 | 55 | 1012.0 |
| 20260904090010 | 24 | 276 | 3.2 | 4.8 | 0.00 | 0.00 | 0.00 | 56 | 1011.8 |
| 20260904085505 | 24 | 297 | 0.0 | 0.0 | 0.00 | 0.00 | 0.00 | 56 | 1011.8 |
| 20260904085004 | 24 | 297 | 0.0 | 0.0 | 0.00 | 0.00 | 0.00 | 55 | 1011.8 |
| 20260904084500 | 25 | 297 | 0.0 | 3.2 | 0.00 | 0.00 | 0.00 | 54 | 1011.8 |
| 20260904083955 | 25 | 270 | 0.0 | 3.2 | 0.00 | 0.00 | 0.00 | 54 | 1011.9 |
| 20260904083452 | 25 | 331 | 0.0 | 3.2 | 0.00 | 0.00 | 0.00 | 54 | 1011.9 |
| 20260904082947 | 25 | 287 | 3.2 | 6.4 | 0.00 | 0.00 | 0.00 | 54 | 1011.9 |
| 20260904082442 | 25 | 291 | 0.0 | 4.8 | 0.00 | 0.00 | 0.00 | 54 | 1011.9 |
| 20260904081937 | 25 | 289 | 0.0 | 8.0 | 0.00 | 0.00 | 0.00 | 54 | 1011.8 |
| 20260904081433 | 25 | 346 | 0.0 | 4.8 | 0.00 | 0.00 | 0.00 | 53 | 1011.8 |
| 20260904080929 | 25 | 297 | 1.6 | 6.4 | 0.00 | 0.00 | 0.00 | 55 | 1012.1 |
| 20260904080424 | 24 | 285 | 0.0 | 6.4 | 0.00 | 0.00 | 0.00 | 56 | 1012.1 |
| 20260904075920 | 25 | 243 | 0.0 | 6.4 | 0.00 | 0.00 | 0.00 | 55 | 1012.4 |
| 20260904075416 | 25 | 237 | 0.0 | 4.8 | 0.00 | 0.00 | 0.00 | 54 | 1012.0 |
| 20260904074914 | 25 | 265 | 3.2 | 6.4 | 0.00 | 0.00 | 0.00 | 54 | 1012.1 |
| 20260904074410 | 25 | 35 | 0.0 | 6.4 | 0.00 | 0.00 | 0.00 | 54 | 1012.0 |
| 20260904073905 | 25 | 270 | 1.6 | 6.4 | 0.00 | 0.00 | 0.00 | 56 | 1011.9 |
| 20260904073401 | 25 | 243 | 0.0 | 3.2 | 0.00 | 0.00 | 0.00 | 55 | 1011.6 |
| 20260904072856 | 25 | 174 | 0.0 | 3.2 | 0.00 | 0.00 | 0.00 | 54 | 1011.8 |
| 20260904072351 | 25 | 81 | 0.0 | 3.2 | 0.00 | 0.00 | 0.00 | 54 | 1011.5 |
| 20260904071846 | 25 | 233 | 0.0 | 3.2 | 0.00 | 0.00 | 0.00 | 53 | 1011.8 |
| 20260904071341 | 25 | 215 | 0.0 | 1.6 | 0.00 | 0.00 | 0.00 | 53 | 1011.4 |
| 20260904070836 | 25 | 291 | 1.6 | 4.8 | 0.00 | 0.00 | 0.00 | 53 | 1011.9 |
| 20260904070335 | 25 | 270 | 3.2 | 3.2 | 0.00 | 0.00 | 0.00 | 54 | 1011.9 |
| 20260904065829 | 25 | 193 | 4.8 | 6.4 | 0.00 | 0.00 | 0.00 | 54 | 1012.0 |
| 20260904065327 | 25 | 180 | 4.8 | 6.4 | 0.00 | 0.00 | 0.00 | 53 | 1012.0 |
| 20260904064821 | 25 | 185 | 3.2 | 4.8 | 0.00 | 0.00 | 0.00 | 54 | 1012.0 |
| 20260904064317 | 25 | 172 | 0.0 | 1.6 | 0.00 | 0.00 | 0.00 | 54 | 1012.0 |
| 20260904063813 | 25 | 174 | 0.0 | 3.2 | 0.00 | 0.00 | 0.00 | 54 | 1011.8 |
| 20260904063309 | 26 | 165 | 0.0 | 3.2 | 0.00 | 0.00 | 0.00 | 53 | 1011.6 |
| 20260904062804 | 26 | 246 | 0.0 | 1.6 | 0.00 | 0.00 | 0.00 | 51 | 1011.9 |
| 20260904062300 | 26 | 180 | 0.0 | 1.6 | 0.00 | 0.00 | 0.00 | 51 | 1011.6 |
| 20260904061755 | 26 | 196 | 3.2 | 3.2 | 0.00 | 0.00 | 0.00 | 50 | 1011.9 |
| 20260904061251 | 26 | 241 | 0.0 | 6.4 | 0.00 | 0.00 | 0.00 | 50 | 1011.8 |
| 20260904060748 | 27 | 160 | 0.0 | 3.2 | 0.00 | 0.00 | 0.00 | 49 | 1011.8 |
| 20260904060243 | 27 | 241 | 3.2 | 8.0 | 0.00 | 0.00 | 0.00 | 49 | 1011.6 |
| 20260904055738 | 27 | 237 | 3.2 | 6.4 | 0.00 | 0.00 | 0.00 | 49 | 1011.8 |
| 20260904055232 | 27 | 253 | 4.8 | 8.0 | 0.00 | 0.00 | 0.00 | 49 | 1011.6 |
| 20260904054728 | 27 | 190 | 4.8 | 8.0 | 0.00 | 0.00 | 0.00 | 49 | 1011.5 |
| 20260904054224 | 26 | 225 | 6.4 | 6.4 | 0.00 | 0.00 | 0.00 | 49 | 1011.6 |
| 20260904053719 | 26 | 241 | 4.8 | 6.4 | 0.00 | 0.00 | 0.00 | 49 | 1011.6 |
| 20260904053218 | 26 | 225 | 3.2 | 8.0 | 0.00 | 0.00 | 0.00 | 51 | 1011.6 |
| 20260904052715 | 25 | 237 | 4.8 | 8.0 | 0.00 | 0.00 | 0.00 | 52 | 1011.6 |
| 20260904052211 | 26 | 221 | 3.2 | 4.8 | 0.00 | 0.00 | 0.00 | 52 | 1011.9 |
| 20260904051708 | 26 | 216 | 4.8 | 6.4 | 0.00 | 0.00 | 0.00 | 52 | 1012.1 |
| 20260904051203 | 26 | 197 | 3.2 | 4.8 | 0.00 | 0.00 | 0.00 | 51 | 1011.9 |
| 20260904050658 | 25 | 213 | 0.0 | 8.0 | 0.00 | 0.00 | 0.00 | 53 | 1011.8 |
| 20260904050154 | 25 | 270 | 0.0 | 8.0 | 0.00 | 0.00 | 0.00 | 57 | 1011.8 |
| 20260904045654 | 26 | 240 | 3.2 | 4.8 | 0.00 | 0.00 | 0.00 | 53 | 1011.8 |
| 20260904045154 | 26 | 209 | 3.2 | 4.8 | 0.00 | 0.00 | 0.00 | 53 | 1011.5 |
| 20260904044649 | 26 | 160 | 4.8 | 4.8 | 0.00 | 0.00 | 0.00 | 52 | 1011.4 |
| 20260904044146 | 27 | 250 | 6.4 | 9.7 | 0.00 | 0.00 | 0.00 | 48 | 1011.5 |
| 20260904043642 | 27 | 135 | 0.0 | 4.8 | 0.00 | 0.00 | 0.00 | 47 | 1011.5 |
| 20260904043137 | 27 | 175 | 3.2 | 3.2 | 0.00 | 0.00 | 0.00 | 48 | 1011.4 |
| 20260904042633 | 26 | 172 | 0.0 | 1.6 | 0.00 | 0.00 | 0.00 | 49 | 1011.1 |
| 20260904042128 | 26 | 261 | 0.0 | 0.0 | 0.00 | 0.00 | 0.00 | 49 | 1011.1 |
| 20260904041624 | 26 | 270 | 0.0 | 1.6 | 0.00 | 0.00 | 0.00 | 50 | 1011.3 |
| 20260904041120 | 26 | 279 | 0.0 | 1.6 | 0.00 | 0.00 | 0.00 | 50 | 1011.2 |
| 20260904040615 | 26 | 254 | 0.0 | 1.6 | 0.00 | 0.00 | 0.00 | 50 | 1011.0 |
| 20260904040112 | 26 | 246 | 0.0 | 3.2 | 0.00 | 0.00 | 0.00 | 50 | 1011.2 |
| 20260904035607 | 27 | 251 | 3.2 | 4.8 | 0.00 | 0.00 | 0.00 | 48 | 1011.2 |
| 20260904035106 | 27 | 240 | 0.0 | 3.2 | 0.00 | 0.00 | 0.00 | 49 | 1011.4 |
| 20260904034601 | 27 | 254 | 1.6 | 4.8 | 0.00 | 0.00 | 0.00 | 47 | 1011.0 |
| 20260904034057 | 28 | 180 | 0.0 | 3.2 | 0.00 | 0.00 | 0.00 | 46 | 1011.1 |
| 20260904033553 | 28 | 180 | 0.0 | 3.2 | 0.00 | 0.00 | 0.00 | 45 | 1011.2 |
| 20260904033050 | 28 | 180 | 3.2 | 4.8 | 0.00 | 0.00 | 0.00 | 45 | 1011.2 |
| 20260904032545 | 27 | 154 | 1.6 | 4.8 | 0.00 | 0.00 | 0.00 | 46 | 1011.1 |